| time (UTC) | temp F | wind direction | speed knots | gust knots | rain 1hr in | rain 24hr in | rain mn in | humidity % | barometer mb |
| 20260510054539 | 76 | 185 | 2.6 | 6.1 | 0.00 | 0.06 | 0.06 | 86 | 1009.7 |
| 20260510053043 | 76 | 209 | 1.7 | 7.8 | 0.00 | 0.06 | 0.06 | 87 | 1009.7 |
| 20260510051543 | 76 | 202 | 1.7 | 5.2 | 0.00 | 0.06 | 0.06 | 87 | 1009.9 |
| 20260510050037 | 76 | 203 | 3.5 | 7.0 | 0.00 | 0.06 | 0.06 | 86 | 1010.0 |
| 20260510044545 | 76 | 227 | 1.7 | 10.4 | 0.00 | 0.06 | 0.06 | 85 | 1010.0 |
| 20260510043042 | 76 | 189 | 1.7 | 6.1 | 0.00 | 0.06 | 0.06 | 84 | 1010.1 |
| 20260510041534 | 76 | 169 | 0.9 | 5.2 | 0.00 | 0.06 | 0.06 | 84 | 1010.4 |
| 20260510040040 | 76 | 229 | 0.9 | 3.5 | 0.00 | 0.06 | 0.06 | 85 | 1010.1 |
| 20260510034631 | 77 | 200 | 1.7 | 7.0 | 0.00 | 0.06 | 0.06 | 85 | 1009.9 |
| 20260510033113 | 77 | 165 | 1.7 | 8.7 | 0.00 | 0.06 | 0.06 | 84 | 1010.3 |
| 20260510031559 | 78 | 212 | 1.7 | 7.8 | 0.00 | 0.06 | 0.06 | 83 | 1010.2 |
| 20260510030111 | 79 | 59 | 3.5 | 9.6 | 0.00 | 0.06 | 0.06 | 81 | 1010.1 |
| 20260510024552 | 79 | 117 | 0.9 | 5.2 | 0.00 | 0.06 | 0.06 | 72 | 1009.7 |
| 20260510023050 | 78 | 204 | 0.9 | 7.0 | 0.00 | 0.06 | 0.06 | 73 | 1009.1 |
| 20260510021550 | 77 | 182 | 0.9 | 5.2 | 0.00 | 0.06 | 0.06 | 79 | 1008.8 |
| 20260510020047 | 76 | 236 | 0.0 | 3.5 | 0.00 | 0.06 | 0.06 | 82 | 1008.4 |
| 20260510014550 | 76 | 236 | 0.0 | 0.9 | 0.00 | 0.06 | 0.06 | 81 | 1007.9 |
| 20260510013046 | 77 | 236 | 0.0 | 0.9 | 0.00 | 0.06 | 0.06 | 81 | 1007.6 |
| 20260510011546 | 77 | 236 | 0.0 | 0.9 | 0.00 | 0.06 | 0.06 | 79 | 1007.5 |
| 20260510010022 | 77 | 236 | 0.0 | 1.7 | 0.00 | 0.06 | 0.06 | 79 | 1007.2 |
| 20260510004515 | 78 | 236 | 0.0 | 2.6 | 0.00 | 0.06 | 0.06 | 78 | 1006.9 |
| 20260510003050 | 78 | 236 | 0.0 | 3.5 | 0.00 | 0.06 | 0.06 | 77 | 1007.1 |
| 20260510001543 | 80 | 242 | 0.0 | 3.5 | 0.01 | 0.06 | 0.06 | 81 | 1007.2 |
| 20260510000049 | 80 | 25 | 0.0 | 2.6 | 0.02 | 0.06 | 0.06 | 82 | 1006.9 |
| 20260509234552 | 80 | 25 | 0.0 | 0.0 | 0.06 | 0.06 | 0.06 | 82 | 1006.4 |
| 20260509233043 | 82 | 25 | 0.9 | 1.7 | 0.06 | 0.06 | 0.06 | 80 | 1006.4 |
| 20260509231539 | 84 | 24 | 0.9 | 2.6 | 0.05 | 0.05 | 0.05 | 75 | 1006.5 |
| 20260509230039 | 88 | 22 | 0.0 | 1.7 | 0.03 | 0.03 | 0.03 | 67 | 1006.4 |
| 20260509224535 | 89 | 21 | 0.0 | 0.9 | 0.00 | 0.00 | 0.00 | 64 | 1006.2 |
| 20260509223040 | 89 | 21 | 0.9 | 2.6 | 0.00 | 0.00 | 0.00 | 63 | 1006.1 |
| 20260509221537 | 90 | 20 | 0.0 | 1.7 | 0.00 | 0.00 | 0.00 | 62 | 1006.0 |
| 20260509220030 | 90 | 20 | 0.0 | 2.6 | 0.00 | 0.00 | 0.00 | 62 | 1006.0 |
| 20260509214529 | 89 | 20 | 0.0 | 2.6 | 0.00 | 0.00 | 0.00 | 64 | 1006.1 |
| 20260509213032 | 90 | 17 | 0.9 | 4.3 | 0.00 | 0.00 | 0.00 | 62 | 1006.1 |
| 20260509211527 | 90 | 71 | 0.0 | 2.6 | 0.00 | 0.00 | 0.00 | 63 | 1006.1 |
| 20260509210022 | 89 | 65 | 0.9 | 5.2 | 0.00 | 0.00 | 0.00 | 65 | 1006.4 |
| 20260509204520 | 89 | 75 | 1.7 | 4.3 | 0.00 | 0.00 | 0.00 | 65 | 1006.6 |
| 20260509203020 | 88 | 47 | 1.7 | 2.6 | 0.00 | 0.00 | 0.00 | 65 | 1006.7 |
| 20260509201517 | 89 | 318 | 1.7 | 5.2 | 0.00 | 0.00 | 0.00 | 65 | 1006.9 |
| 20260509200057 | 89 | 16 | 1.7 | 4.3 | 0.00 | 0.00 | 0.00 | 64 | 1006.9 |
| 20260509194542 | 88 | 51 | 0.9 | 4.3 | 0.00 | 0.01 | 0.00 | 65 | 1007.2 |
| 20260509193051 | 88 | 82 | 1.7 | 3.5 | 0.00 | 0.01 | 0.00 | 66 | 1007.3 |
| 20260509191536 | 87 | 192 | 1.7 | 6.1 | 0.00 | 0.01 | 0.00 | 68 | 1007.3 |
| 20260509190035 | 87 | 307 | 0.9 | 3.5 | 0.00 | 0.01 | 0.00 | 67 | 1007.6 |
| 20260509184540 | 86 | 302 | 0.9 | 3.5 | 0.00 | 0.03 | 0.00 | 69 | 1007.7 |
| 20260509183025 | 86 | 204 | 0.0 | 1.7 | 0.00 | 0.03 | 0.00 | 70 | 1007.8 |
| 20260509181523 | 85 | 200 | 0.9 | 7.8 | 0.00 | 0.03 | 0.00 | 71 | 1008.1 |
| 20260509180020 | 85 | 311 | 0.9 | 5.2 | 0.00 | 0.03 | 0.00 | 72 | 1008.5 |
| 20260509174517 | 84 | 199 | 3.5 | 7.8 | 0.00 | 0.03 | 0.00 | 73 | 1008.7 |
| 20260509173011 | 83 | 176 | 0.0 | 5.2 | 0.00 | 0.03 | 0.00 | 78 | 1008.8 |
| 20260509171512 | 82 | 180 | 2.6 | 8.7 | 0.00 | 0.03 | 0.00 | 79 | 1008.8 |
| 20260509170005 | 81 | 187 | 1.7 | 5.2 | 0.00 | 0.03 | 0.00 | 80 | 1009.2 |
| 20260509164504 | 80 | 24 | 0.0 | 1.7 | 0.00 | 0.03 | 0.00 | 82 | 1009.2 |
| 20260509163115 | 80 | 24 | 0.0 | 0.9 | 0.00 | 0.03 | 0.00 | 83 | 1009.1 |
| 20260509161556 | 79 | 25 | 0.0 | 1.7 | 0.00 | 0.03 | 0.00 | 83 | 1009.2 |
| 20260509160054 | 79 | 25 | 0.0 | 2.6 | 0.00 | 0.03 | 0.00 | 85 | 1009.3 |
| 20260509154552 | 78 | 18 | 0.0 | 2.6 | 0.00 | 0.03 | 0.00 | 87 | 1009.1 |
| 20260509153049 | 77 | 274 | 0.9 | 1.7 | 0.00 | 0.03 | 0.00 | 89 | 1008.9 |
| 20260509151544 | 77 | 238 | 0.0 | 0.0 | 0.00 | 0.03 | 0.00 | 90 | 1009.2 |
| 20260509150055 | 76 | 238 | 0.0 | 2.6 | 0.00 | 0.03 | 0.00 | 91 | 1009.1 |
| 20260509144615 | 76 | 198 | 0.0 | 0.9 | 0.00 | 0.03 | 0.03 | 93 | 1008.7 |
| 20260509143044 | 76 | 196 | 0.0 | 1.7 | 0.00 | 0.03 | 0.03 | 93 | 1008.7 |
| 20260509141541 | 75 | 196 | 0.0 | 0.9 | 0.00 | 0.03 | 0.03 | 94 | 1008.5 |
| 20260509140034 | 75 | 194 | 0.0 | 3.5 | 0.00 | 0.03 | 0.03 | 94 | 1008.4 |
| 20260509134533 | 75 | 194 | 0.0 | 3.5 | 0.00 | 0.03 | 0.03 | 94 | 1008.6 |
| 20260509133034 | 75 | 188 | 0.0 | 1.7 | 0.00 | 0.03 | 0.03 | 94 | 1008.9 |
| 20260509131537 | 75 | 187 | 0.0 | 0.9 | 0.00 | 0.03 | 0.03 | 95 | 1009.4 |
| 20260509130026 | 75 | 187 | 0.0 | 2.6 | 0.00 | 0.03 | 0.03 | 95 | 1009.2 |
| 20260509124529 | 75 | 186 | 0.0 | 0.9 | 0.00 | 0.03 | 0.03 | 95 | 1009.1 |
| 20260509123025 | 74 | 186 | 0.0 | 1.7 | 0.00 | 0.03 | 0.03 | 94 | 1008.9 |
| 20260509121527 | 74 | 185 | 0.0 | 0.0 | 0.00 | 0.03 | 0.03 | 94 | 1009.0 |
| 20260509120021 | 74 | 185 | 0.0 | 0.0 | 0.00 | 0.03 | 0.03 | 94 | 1008.6 |
| 20260509114521 | 74 | 185 | 0.0 | 0.0 | 0.00 | 0.03 | 0.03 | 94 | 1008.7 |
| 20260509113021 | 74 | 185 | 0.0 | 1.7 | 0.00 | 0.03 | 0.03 | 94 | 1008.8 |
| 20260509111519 | 74 | 187 | 0.0 | 0.0 | 0.00 | 0.03 | 0.03 | 94 | 1008.9 |
| 20260509110018 | 74 | 187 | 0.0 | 0.0 | 0.00 | 0.03 | 0.03 | 94 | 1008.7 |
| 20260509104530 | 74 | 187 | 0.0 | 0.0 | 0.00 | 0.03 | 0.03 | 93 | 1008.3 |
| 20260509103017 | 74 | 187 | 0.0 | 0.9 | 0.00 | 0.03 | 0.03 | 93 | 1008.2 |
| 20260509101550 | 74 | 187 | 0.0 | 0.0 | 0.00 | 0.03 | 0.03 | 93 | 1008.1 |
| 20260509100054 | 74 | 187 | 0.0 | 0.0 | 0.00 | 0.03 | 0.03 | 93 | 1007.9 |
| 20260509094549 | 74 | 187 | 0.0 | 0.0 | 0.00 | 0.03 | 0.03 | 93 | 1007.9 |
| 20260509093044 | 74 | 187 | 0.0 | 0.0 | 0.00 | 0.03 | 0.03 | 93 | 1007.9 |
| 20260509091544 | 74 | 187 | 0.0 | 0.0 | 0.00 | 0.03 | 0.03 | 93 | 1008.3 |
| 20260509090043 | 74 | 187 | 0.0 | 0.0 | 0.00 | 0.03 | 0.03 | 93 | 1008.3 |
| 20260509084540 | 74 | 187 | 0.0 | 0.0 | 0.00 | 0.03 | 0.03 | 93 | 1008.1 |
| 20260509083042 | 74 | 187 | 0.0 | 1.7 | 0.00 | 0.03 | 0.03 | 93 | 1008.0 |
| 20260509081545 | 74 | 186 | 0.9 | 3.5 | 0.00 | 0.03 | 0.03 | 93 | 1008.1 |
| 20260509080042 | 74 | 179 | 0.0 | 0.9 | 0.00 | 0.03 | 0.03 | 93 | 1008.2 |
| 20260509074507 | 74 | 177 | 0.0 | 1.7 | 0.00 | 0.03 | 0.03 | 93 | 1007.9 |
| 20260509073007 | 74 | 151 | 0.0 | 0.0 | 0.00 | 0.03 | 0.03 | 92 | 1008.2 |
| 20260509071502 | 74 | 151 | 0.0 | 0.0 | 0.00 | 0.03 | 0.03 | 92 | 1008.5 |
| 20260509070002 | 74 | 151 | 0.0 | 0.0 | 0.00 | 0.03 | 0.03 | 92 | 1008.5 |
| 20260509064502 | 74 | 151 | 0.0 | 0.0 | 0.00 | 0.03 | 0.03 | 92 | 1008.5 |
| 20260509063001 | 74 | 151 | 0.0 | 0.0 | 0.00 | 0.03 | 0.03 | 92 | 1008.6 |
| 20260509061559 | 74 | 151 | 0.0 | 0.0 | 0.00 | 0.03 | 0.03 | 91 | 1008.6 |
| 20260509060105 | 74 | 151 | 0.0 | 0.0 | 0.00 | 0.03 | 0.03 | 91 | 1008.7 |